Regional Weather Roundup
Issued by NWS

Home | Current Version | Previous Version | Text Only | Print | Product List | Glossary On
Versions: 1 2 3 4 5 6 7 8 9 10 11 12 13 14 15 16 17 18 19 20 21 22 23 24 25 26 27 28 29 30 31 32 33 34 35 36 37 38 39 40 41 42 43 44 45 46 47 48 49 50
000
ASUS43 KLMK 290410
RWRKY
KENTUCKY REGIONAL WEATHER ROUNDUP
NATIONAL WEATHER SERVICE LOUISVILLE KY
1200 AM EDT FRI AUG 29 2014

NOTE "FAIR" INDICATES FEW OR NO CLOUDS BELOW 12,000 FEET
WITH NO SIGNIFICANT WEATHER AND/OR OBSTRUCTIONS TO VISIBILITY.

KYZ001>023-026-027-061>063-070>075-290500-
WESTERN AND SOUTH CENTRAL KENTUCKY

CITY           SKY/WX    TMP DP  RH WIND       PRES   REMARKS
PADUCAH        MOCLDY    73  70  90 CALM      29.99S FOG
HENDERSON      MOCLDY    73  70  88 CALM      30.01S
OWENSBORO      MOCLDY    78  72  82 CALM      30.01F
HOPKINSVILLE   MOCLDY    76  75  97 E3        30.01S
BOWLING GREEN  CLOUDY    73  71  93 CALM      30.02S FOG
GLASGOW        PTCLDY    73  73 100 CALM      30.03S FOG
$$

KYZ024-025-028>034-038-045-046-053-290500-
NORTH CENTRAL KENTUCKY

CITY           SKY/WX    TMP DP  RH WIND       PRES   REMARKS
LOUISVILLE/SDF MOCLDY    80  69  69 E6        30.03S
LOUISVILLE/LOU MOCLDY    80  69  69 E6        30.04S
FORT KNOX      MOCLDY    75  70  83 CALM      30.04R
$$

KYZ035>037-039>044-047>052-055>060-089>105-290500-
NORTHEAST KENTUCKY

CITY           SKY/WX    TMP DP  RH WIND       PRES   REMARKS
LEXINGTON      CLEAR     77  68  73 E7        30.07S
COVINGTON      MOCLDY    73  60  63 E8        30.09S
FRANKFORT      PTCLDY    74  67  78 E6        30.06S
$$

KYZ054-064>069-076>088-106>120-290500-
SOUTHEAST KENTUCKY

CITY           SKY/WX    TMP DP  RH WIND       PRES   REMARKS
JACKSON        CLEAR     72  64  76 CALM      30.10F
LONDON         CLEAR     74  69  85 CALM      30.09R
SOMERSET       CLEAR     73  68  83 CALM      30.07F
MIDDLESBORO    CLEAR     72  70  93 CALM      30.09R
MONTICELLO     PTCLDY    74  72  93 NE5       30.07F
$$



USA.gov is the U.S. government's official web portal to all federal, state and local government web resources and services.